Showing default

LEMUR 2 KARENDARRELL, 64841

Orbit data source: Space-Track

LEMUR 2 KARENDARRELL, 64841 is an American payload satellite in SSO that was launched on Mon, 23 Jun 2025 UTC via an FALCON 9 launch vehicle from the Air Force Western Test Range (AFWTR). Payload-class satellites include a variety of spacecraft equipped with specific instruments for various scientific and technological missions. These include communications satellites like Starlink; space stations such as the ISS; scientific satellites like the Hubble; Earth observation satellites from companies like Planet Labs, Umbra, and HawkEye 360; GPS; miniature CubeSats for education and research; and military/defense satellites.

Loading next visibility...
Identifier
64841, 2025-135BU
Orbit
SSO
Country
Flag of USUS
Related business
Manufacturer
Spire/Glasgow
Mission
Operational Commercial Com/MetRO
Bus & Motor
CUBESAT 4U, Unknown motor
Mass
5 kg wet, 5 kg dry
Launch date (UTC)
2025-06-23 (4 months ago)
Launch vehicle
FALCON 9
Launch site
Air Force Western Test Range (AFWTR)
Object type
Payload
Rocket body
Debris
Shape & HBR
Box, 0.2 m
Radar Cross Section
0.045 m², Small (<0.1 m²)

Expand to show TLE details & history
Last TLE update: 9 hours ago

TLE from 9 hours ago
0 LEMUR 2 KARENDARRELL
1 64841U 25135BU  25293.88342028  .00014404  00000-0  13278-2 0  9991
2 64841  97.7580  46.5496 0007436 304.4338  55.6179 14.94766281 18190
Epoch: 2025-10-20T21:12Z
TLE epoch observation values (Epoch: 2025-10-20T21:12:07.512Z)
Latitude
-0.00002°
Longitude
58.93896°
Altitude
583.223 km
Speed
7.57 km/s
True Right ascension
03h 06m 11s
True Declination
0° 00' 00"
Sunlit
Object was in full shadow at epoch
Visualization orbit readout
Latitude
Unknown
Longitude
Unknown
Altitude
Unknown
Speed
Unknown
Apparent Right ascension
Unknown
Apparent Declination
Unknown
Sunlit
N/A
Visualization observer readout
Local Sidereal Time
01:35:17
Azimuth
Unknown
Elevation
Unknown
Doppler factor
Unknown
Orbital elements
Apogee altitude
585.287 km
Perigee altitude
574.939 km
Semi-major axis
6,958.25 km
Eccentricity
0.00074
Inclination
97.758°
RAAN
46.5496°
Arg. of periapsis
304.4338°
True anomaly
55.68826°
Mean anomaly
55.6179°
Eccentric anomaly
55.65308°
Mean motion
3.73932 °/min
Orbital period
96.27 mins
BSTAR
0.0013278
Loading maneuver chart data...
Computing Atmospheric mass density...
Loading historical data...
Loading historical data...
Loading historical data...
Loading historical data...
Loading historical data...
Loading historical data...
Loading historical data...

Documentation

Showing up to 5 results
|